Back to catalog

SES 14

AliveCommunicationsGEO
NORAD 43175·PAYLOAD·🇱🇺 Luxembourg

Launched Jan 25, 2018 from Guiana Space Centre

Loading…

TLE

FreshSource: CelesTrak SupGP

Epoch: Sep 13, 2026, 23:44 UTC

1 43175C 18012B   26256.98958333 -.00000206  00000+0  00000+0 0  2564
2 43175   0.0308  37.4091 0001035 119.3858 144.9352  1.00272343    12

Track SES 14 in real time with AllMySat

Download on the App Store